Flag for Czech Republic Weather past 2 weeks in Liberec, Czech Republic

Now
56 °F

Partly sunny.


Feels Like: 56 °F
Forecast: 34 / 48 °F
Wind: 3 mph from South

Location: Liberec

Current Time: Oct 21, 2014 at 3:41:44 PM

Latest Report: Oct 21, 2014 at 3:00 PM


Visibility: 19 mi

Pressure: 29.74 "Hg

Humidity: 66%

Dew point: 45 °F

Location of LiberecLocation

Historic Weather in Liberec — Graph

°F

Liberec temperature yesterday

Maximum temperature yesterday: 64 °F (at 2:00 PM)
Minimum temperature yesterday: 48 °F (at 11:00 PM)
Average temperature yesterday: 56 °F

Past Weeks' High & Low Weather Summary

 TemperatureHumidityPressure
High67 °F (Oct 9, 4:00 PM)100% (Oct 12, 8:00 AM)30.29 "Hg (Oct 12, 8:00 AM)
Low44 °F (Oct 21, 7:00 AM)52% (Oct 20, 2:00 PM)29.73 "Hg (Oct 16, 5:00 PM)
Average56 °F85%29.94 "Hg
* Reported Oct 6 2:00 PM — Oct 21 2:00 PM, Liberec, Weather by CustomWeather, © 2014

Note: Actual official high and low records may vary slightly from our data, if they occured in-between our weather recording intervals... More about our weather records

Advertising

Liberec weather history for previous 24 hours

 ConditionsComfort  
Time TempWeatherWind HumidityBarometerVisibility
2:00 PM
Oct 21
55 °FPartly sunny.2 mph75%29.77 "Hg19 mi
1:00 PM57 °FPartly sunny.3 mph66%29.79 "Hg19 mi
12:00 PM55 °FScattered clouds.6 mph68%29.82 "Hg17 mi
11:00 AM55 °FPartly sunny.2 mph71%29.85 "Hg17 mi
10:00 AM54 °FScattered clouds.2 mph79%29.85 "Hg14 mi
9:00 AM49 °FPartly sunny.1 mph93%29.88 "Hg14 mi
8:00 AM46 °FPartly sunny.2 mph97%29.90 "Hg9 mi
7:00 AM44 °FQuite cool.1 mph97%29.90 "Hg7 mi
6:00 AM46 °FCool.1 mph94%29.91 "Hg7 mi
5:00 AM46 °FCool.1 mph95%29.92 "Hg11 mi
4:00 AM46 °FCool.1 mph95%29.93 "Hg10 mi
3:00 AM46 °FCool.1 mph94%29.93 "Hg12 mi
2:00 AM48 °FCool.No wind91%29.93 "Hg12 mi
1:00 AM47 °FCool.No wind90%29.95 "Hg12 mi
12:00 AM50 °FCool.3 mph82%29.94 "Hg12 mi
11:00 PM
Oct 20
48 °FCool.No wind85%29.96 "Hg12 mi
10:00 PM49 °FOvercast.1 mph81%29.96 "Hg16 mi
9:00 PM52 °FOvercast.2 mph73%29.96 "Hg16 mi
8:00 PM52 °FOvercast.1 mph74%29.96 "Hg19 mi
7:00 PM54 °FOvercast.2 mph69%29.96 "Hg19 mi
6:00 PM55 °FCool.5 mph66%29.95 "Hg12 mi
5:00 PM57 °FPartly sunny.7 mph59%29.96 "Hg25 mi
4:00 PM59 °FPartly sunny.8 mph55%29.95 "Hg25 mi
3:00 PM63 °FPartly sunny.6 mph53%29.94 "Hg25 mi
Weather by CustomWeather, © 2014

See weather overviewHow to use our weather pages